[[{"header":{"parameterUnit":"m.s-1","parameterCategory":1,"la1":30.2991,"la2":30.254,"lo1":-89.0895,"lo2":-89.0444,"dy":0.0017,"dx":0.0017,"nx":28,"ny":28,"refTime":"2025-08-18T09:00:00:Z","depth":0,"parameterNumber":2,"parameterNumberName":"U-component_of_WINDS"},"data":[0,0,0,0,0,0,0,0,0,0,0,0,0,0,0,0,0,0,0,0,0,0,0,0,0,0,0,0,0,0,0,0,0,0,0,0,0,0,0,0,0,0,0,0,0,0,0,0,0,0,0,0,0,0,0,0,0,0,-1.4809,-1.4809,0,-1.4851,-1.4851,-1.4852,-1.4828,-1.4827,-1.4826,-1.4825,-1.4869,-1.4871,-1.4873,0,0,0,0,0,0,0,0,0,0,0,0,0,-1.4708,-1.471,-1.4808,-1.4809,-1.481,-1.4851,-1.4851,-1.4852,-1.4829,-1.4827,-1.4826,-1.4825,-1.4868,-1.4871,-1.4874,0,0,0,0,0,0,0,0,0,0,0,0,0,-1.4751,-1.4711,-1.4808,-1.4803,-1.4803,-1.4851,-1.4851,-1.4852,-1.4829,-1.4827,-1.4825,-1.4824,-1.4867,-1.4871,-1.4874,-1.493,0,0,-1.4884,-1.4886,0,0,0,0,0,0,0,0,-1.4749,-1.4755,-1.4803,-1.4803,-1.4803,-1.4833,-1.4832,-1.4878,-1.4829,-1.4819,-1.4825,-1.4823,-1.4858,-1.4862,-1.4874,-1.4932,-1.4934,-1.4885,-1.4887,-1.4888,-1.4889,0,0,0,0,0,0,0,-1.4746,-1.4753,-1.4825,-1.4804,-1.4804,-1.4799,-1.4803,-1.4841,-1.4848,-1.482,-1.4818,-1.4824,-1.4858,-1.4871,-1.4875,-1.4935,-1.4885,-1.4888,-1.489,-1.4891,-1.5042,-1.5044,0,0,0,0,0,0,-1.4743,-1.4751,-1.4824,-1.4827,-1.4771,-1.4802,-1.4807,-1.4825,-1.4848,-1.4849,-1.4825,-1.4822,-1.4866,-1.4871,-1.4876,-1.4944,-1.4888,-1.4891,-1.4893,-1.504,-1.5042,-1.5044,0,0,0,0,0,0,-1.4741,-1.475,-1.4822,-1.4788,-1.4797,-1.4805,-1.4826,-1.4827,-1.484,-1.4851,-1.4853,-1.4837,-1.4865,-1.4872,-1.4917,-1.4946,-1.4893,-1.4896,-1.5038,-1.5041,-1.5043,-1.508,0,0,0,0,0,0,-1.4738,-1.4749,-1.477,-1.4789,-1.4799,-1.4862,-1.4828,-1.4829,-1.4845,-1.4842,-1.4863,-1.4865,-1.4864,-1.4912,-1.492,-1.4949,-1.4899,-1.5035,-1.5039,-1.5042,-1.5077,-1.5084,-1.5091,0,0,0,0,0,-1.4735,-1.4779,-1.4772,-1.4781,-1.4825,-1.4864,-1.4869,-1.4868,-1.4848,-1.4869,-1.4877,-1.4864,-1.4941,-1.4917,-1.4926,-1.4956,-1.5033,-1.5038,-1.5042,-1.5073,-1.5083,-1.5091,0,0,0,0,0,0,-1.4763,-1.4781,-1.4773,-1.4825,-1.4843,-1.486,-1.4886,-1.4877,-1.4902,-1.4898,-1.4895,-1.4899,-1.4947,-1.4956,-1.4929,-1.5013,-1.4984,-1.4991,-1.5005,-1.5014,-1.5021,-1.5018,-1.4901,0,0,0,0,0,-1.4776,-1.4805,-1.4819,-1.4863,-1.4872,-1.4878,-1.4895,-1.4892,-1.4911,-1.4918,-1.4929,-1.4948,-1.4977,-1.4996,-1.5022,-1.5078,-1.5082,-1.5103,-1.511,-1.5116,-1.5122,-1.5153,-1.5163,-1.5059,-1.5059,-1.5059,0,0,-1.4801,-1.4815,-1.4833,-1.4869,-1.4883,-1.4914,-1.4885,-1.4918,-1.4941,-1.4923,-1.4967,-1.4976,-1.4997,-1.5048,-1.5071,-1.5057,-1.5151,-1.5122,-1.5126,-1.5129,-1.5158,-1.5168,-1.5177,-1.5062,-1.5061,-1.5061,0,0,-1.4864,-1.4877,-1.4915,-1.493,-1.4951,-1.4955,-1.4964,-1.4983,-1.4988,-1.5032,-1.5019,-1.5047,-1.5096,-1.5112,-1.5126,-1.5196,-1.5185,-1.5205,-1.5242,-1.5272,-1.528,-1.5288,-1.5314,-1.5323,-1.521,-1.521,-1.5211,0,-1.4893,-1.4939,-1.4936,-1.4971,-1.4988,-1.4973,-1.5012,-1.5027,-1.5056,-1.5068,-1.5052,-1.5114,-1.5127,-1.5182,-1.5199,-1.5211,-1.5222,-1.5203,-1.5279,-1.5287,-1.5293,-1.5318,-1.5328,-1.5213,-1.5213,-1.5212,-1.5212,0,-1.4974,-1.5006,-1.5035,-1.5064,-1.5084,-1.5121,-1.5124,-1.5144,-1.514,-1.5146,-1.5191,-1.5206,-1.5237,-1.5249,-1.5245,-1.5304,-1.5295,-1.5279,-1.5251,-1.5306,-1.5329,-1.5338,-1.5216,-1.5215,-1.5215,-1.5214,0,0,-1.5056,-1.5083,-1.5094,-1.5108,-1.513,-1.5155,-1.5192,-1.5222,-1.524,-1.5261,-1.5292,-1.5334,-1.532,-1.5337,-1.5334,-1.5361,-1.5417,-1.5342,-1.5343,-1.5356,-1.5484,-1.5497,-1.5508,-1.541,-1.5411,-1.5413,-1.5483,0,-1.5121,-1.5185,-1.5184,-1.5244,-1.5274,-1.5261,-1.5293,-1.5311,-1.5318,-1.5345,-1.5351,-1.5382,-1.536,-1.537,-1.5396,-1.5405,-1.5443,-1.54,-1.544,-1.5441,-1.5436,-1.552,-1.5533,-1.5598,-1.5492,-1.5493,-1.5494,0,-1.5205,-1.5229,-1.5292,-1.5312,-1.5324,-1.5353,-1.5381,-1.5407,-1.5427,-1.543,-1.5449,-1.5443,-1.5481,-1.5451,-1.5504,-1.5475,-1.5491,-1.5498,-1.5501,-1.5505,-1.5472,-1.5527,-1.5618,-1.5629,-1.5509,-1.5507,-1.5506,0,-1.5259,-1.5308,-1.5352,-1.5364,-1.5387,-1.5408,-1.5419,-1.5438,-1.5456,-1.548,-1.5492,-1.5521,-1.5537,-1.5559,-1.5561,-1.5539,-1.5615,-1.5585,-1.5619,-1.5619,-1.5636,-1.5635,-1.5733,-1.5646,-1.5646,-1.5645,-1.5645,0,-1.5332,-1.5372,-1.5377,-1.5404,-1.5448,-1.5447,-1.5491,-1.55,-1.5517,-1.5546,-1.5536,-1.5564,-1.5564,-1.5593,-1.5595,-1.5639,-1.5646,-1.565,-1.565,-1.5651,-1.5651,-1.5663,-1.5659,-1.5648,-1.5647,-1.5647,-1.5646,0,-1.5401,-1.5406,-1.5453,-1.5472,-1.5478,-1.551,-1.5526,-1.5552,-1.5558,-1.5595,-1.5604,-1.5613,-1.5646,-1.565,-1.5689,-1.569,-1.5744,-1.5739,-1.5737,-1.5737,-1.5771,-1.5768,-1.588,-1.5895,-1.5797,-1.5798,-1.5799,0,-1.5448,-1.5478,-1.55,-1.5519,-1.5531,-1.5562,-1.5581,-1.5581,-1.5601,-1.5627,-1.5651,-1.5683,-1.5709,-1.5763,-1.5773,-1.5803,-1.5799,-1.5836,-1.5803,-1.5804,-1.5801,-1.5799,-1.5803,-1.5843,-1.5844,-1.5845,-1.5845,0,-1.553,-1.5531,-1.5559,-1.5588,-1.5611,-1.5633,-1.5655,-1.5671,-1.5674,-1.5697,-1.5731,-1.5751,-1.5791,-1.5824,-1.5853,-1.5865,-1.5856,-1.5855,-1.5865,-1.5867,-1.5865,-1.5868,-1.5756,-1.5853,-1.5852,-1.5852,-1.5851,-1.5851,-1.559,-1.5616,-1.5637,-1.5668,-1.5684,-1.5705,-1.5731,-1.574,-1.5768,-1.5801,-1.5799,-1.5837,-1.5858,-1.5897,-1.5911,-1.5941,-1.5928,-1.5942,-1.5946,-1.595,-1.5953,-1.586,-1.5946,-1.5946,-1.5946,-1.5945,-1.5945,0,-1.5673,-1.5685,-1.5714,-1.5745,-1.577,-1.5759,-1.5782,-1.5804,-1.5837,-1.5857,-1.5883,-1.5923,-1.5955,-1.5968,-1.5999,-1.6021,-1.6018,-1.6029,-1.6028,-1.6031,-1.5962,-1.5951,-1.6032,-1.6032,-1.6032,-1.6031,-1.6031,-1.6031,-1.5719,-1.5764,-1.5768,-1.5821,-1.5833,-1.587,-1.5885,-1.5904,-1.592,-1.5965,-1.5991,-1.5999,-1.6017,-1.605,-1.6079,-1.6082,-1.6094,-1.6108,-1.611,-1.6045,-1.6036,-1.6028,-1.6017,-1.6111,-1.6111,-1.6176,-1.6177,-1.6177]},{"header":{"parameterUnit":"m.s-1","parameterCategory":1,"la1":30.2991,"la2":30.254,"lo1":-89.0895,"lo2":-89.0444,"dy":0.0017,"dx":0.0017,"nx":28,"ny":28,"refTime":"2025-08-18T09:00:00:Z","depth":0,"parameterNumber":3,"parameterNumberName":"V-component_of_WINDS"},"data":[0,0,0,0,0,0,0,0,0,0,0,0,0,0,0,0,0,0,0,0,0,0,0,0,0,0,0,0,0,0,0,0,0,0,0,0,0,0,0,0,0,0,0,0,0,0,0,0,0,0,0,0,0,0,0,0,0,0,-0.9332,-0.9331,0,-0.9258,-0.9257,-0.9257,-0.9194,-0.9193,-0.9192,-0.9192,-0.9115,-0.9113,-0.9112,0,0,0,0,0,0,0,0,0,0,0,0,0,-0.9415,-0.9414,-0.9332,-0.9331,-0.933,-0.9258,-0.9257,-0.9256,-0.9194,-0.9193,-0.9192,-0.9191,-0.9115,-0.9113,-0.9112,0,0,0,0,0,0,0,0,0,0,0,0,0,-0.9364,-0.9414,-0.9332,-0.929,-0.9285,-0.9259,-0.9257,-0.9256,-0.9194,-0.9193,-0.9192,-0.9191,-0.9116,-0.9114,-0.9111,-0.912,0,0,-0.9105,-0.9104,0,0,0,0,0,0,0,0,-0.9367,-0.9361,-0.9297,-0.9293,-0.9288,-0.9234,-0.9259,-0.921,-0.9194,-0.9229,-0.9192,-0.919,-0.9155,-0.915,-0.9138,-0.9116,-0.9113,-0.9105,-0.9104,-0.9103,-0.9102,0,0,0,0,0,0,0,-0.9371,-0.9364,-0.9302,-0.9296,-0.929,-0.9274,-0.9266,-0.9249,-0.9199,-0.9226,-0.9221,-0.9213,-0.9152,-0.914,-0.9136,-0.9111,-0.9105,-0.9103,-0.9102,-0.9101,-0.9092,-0.9093,0,0,0,0,0,0,-0.9381,-0.9367,-0.9305,-0.93,-0.9326,-0.9274,-0.9264,-0.9252,-0.9199,-0.9189,-0.9214,-0.921,-0.9144,-0.9138,-0.9133,-0.9139,-0.9103,-0.9101,-0.91,-0.9091,-0.9093,-0.9094,0,0,0,0,0,0,-0.9383,-0.9376,-0.9308,-0.9332,-0.9323,-0.9273,-0.926,-0.9251,-0.9239,-0.919,-0.918,-0.9211,-0.9143,-0.9136,-0.9124,-0.9136,-0.91,-0.9098,-0.909,-0.9092,-0.9093,-0.9152,0,0,0,0,0,0,-0.9386,-0.9377,-0.938,-0.9333,-0.9322,-0.93,-0.9261,-0.9251,-0.9236,-0.9231,-0.9185,-0.9176,-0.9142,-0.9127,-0.9121,-0.9132,-0.9096,-0.9089,-0.9091,-0.9093,-0.9149,-0.9155,-0.9161,0,0,0,0,0,-0.9389,-0.9399,-0.9381,-0.9374,-0.9324,-0.9301,-0.9295,-0.9256,-0.9237,-0.924,-0.9208,-0.9178,-0.9135,-0.9126,-0.9119,-0.913,-0.9088,-0.909,-0.9093,-0.9146,-0.9154,-0.9161,0,0,0,0,0,0,-0.9448,-0.9392,-0.9371,-0.9367,-0.9339,-0.9291,-0.9293,-0.9265,-0.9242,-0.9238,-0.919,-0.918,-0.9173,-0.915,-0.9141,-0.9135,-0.9107,-0.9109,-0.9151,-0.9158,-0.9164,-0.917,-0.9095,0,0,0,0,0,-0.9461,-0.9448,-0.9399,-0.9399,-0.9387,-0.9342,-0.9331,-0.9303,-0.9273,-0.9261,-0.9228,-0.9199,-0.9179,-0.9167,-0.9146,-0.9145,-0.9134,-0.9148,-0.9155,-0.916,-0.9162,-0.916,-0.9166,-0.9101,-0.9101,-0.9101,0,0,-0.9487,-0.9454,-0.9449,-0.9411,-0.9386,-0.9373,-0.9333,-0.932,-0.931,-0.9258,-0.9245,-0.922,-0.9185,-0.9178,-0.9174,-0.9159,-0.9177,-0.9163,-0.9167,-0.9166,-0.9163,-0.9169,-0.9174,-0.9103,-0.9103,-0.9102,0,0,-0.9527,-0.9501,-0.9499,-0.9476,-0.944,-0.941,-0.941,-0.9365,-0.9347,-0.9333,-0.9294,-0.9281,-0.9247,-0.9224,-0.9207,-0.9239,-0.921,-0.9233,-0.9266,-0.9265,-0.927,-0.9274,-0.9286,-0.9291,-0.9235,-0.9235,-0.9235,0,-0.9564,-0.9543,-0.9502,-0.9492,-0.9476,-0.9429,-0.9427,-0.9406,-0.9365,-0.9355,-0.9338,-0.9296,-0.9268,-0.9256,-0.9264,-0.9252,-0.925,-0.9239,-0.9272,-0.9276,-0.928,-0.929,-0.9295,-0.9238,-0.9238,-0.9238,-0.9237,0,-0.959,-0.9576,-0.9579,-0.9541,-0.9526,-0.952,-0.9477,-0.9466,-0.944,-0.9411,-0.9398,-0.9363,-0.9335,-0.9329,-0.9303,-0.9314,-0.9305,-0.9282,-0.9253,-0.929,-0.9299,-0.9303,-0.9243,-0.9242,-0.9241,-0.924,0,0,-0.9666,-0.9606,-0.9608,-0.959,-0.9547,-0.9535,-0.9527,-0.95,-0.9492,-0.9464,-0.9456,-0.9429,-0.9407,-0.9388,-0.9359,-0.9358,-0.9386,-0.9334,-0.9332,-0.9345,-0.9395,-0.9415,-0.942,-0.9366,-0.9367,-0.9367,-0.9399,0,-0.97,-0.9684,-0.9646,-0.9641,-0.9628,-0.9583,-0.9576,-0.9548,-0.9522,-0.9506,-0.9476,-0.9458,-0.9429,-0.9418,-0.9415,-0.9383,-0.9395,-0.938,-0.9358,-0.9358,-0.9369,-0.9425,-0.9445,-0.9476,-0.9402,-0.9403,-0.9403,0,-0.9738,-0.9715,-0.9709,-0.9667,-0.966,-0.9654,-0.9626,-0.9612,-0.958,-0.956,-0.954,-0.9508,-0.9496,-0.9469,-0.9452,-0.9443,-0.9431,-0.9414,-0.9414,-0.9411,-0.9383,-0.9424,-0.9485,-0.949,-0.9408,-0.9408,-0.9407,0,-0.9796,-0.9763,-0.9755,-0.9741,-0.9692,-0.9689,-0.9668,-0.9634,-0.9621,-0.9596,-0.9586,-0.956,-0.9546,-0.9526,-0.9488,-0.9472,-0.9475,-0.9445,-0.9459,-0.946,-0.9462,-0.9463,-0.9523,-0.9453,-0.9453,-0.9453,-0.9453,0,-0.9838,-0.9837,-0.978,-0.9776,-0.9772,-0.9729,-0.9726,-0.9701,-0.9671,-0.9661,-0.9619,-0.961,-0.9559,-0.9544,-0.9513,-0.9504,-0.9498,-0.9482,-0.9474,-0.9486,-0.9488,-0.9478,-0.9475,-0.9454,-0.9454,-0.9454,-0.9454,0,-0.9902,-0.9864,-0.9853,-0.9807,-0.9796,-0.9795,-0.9756,-0.9749,-0.972,-0.9707,-0.9701,-0.9656,-0.9635,-0.9595,-0.9562,-0.9542,-0.954,-0.9525,-0.9551,-0.9547,-0.9563,-0.9562,-0.962,-0.9625,-0.9552,-0.9552,-0.9553,0,-0.9932,-0.993,-0.9885,-0.9875,-0.9856,-0.9841,-0.9826,-0.9783,-0.977,-0.9733,-0.9731,-0.9708,-0.9687,-0.9656,-0.9619,-0.9595,-0.958,-0.9602,-0.9576,-0.9588,-0.9581,-0.9582,-0.9582,-0.9608,-0.9609,-0.961,-0.961,0,-0.999,-0.9972,-0.9954,-0.9929,-0.9914,-0.9892,-0.9868,-0.9862,-0.9813,-0.98,-0.9779,-0.9763,-0.9731,-0.9708,-0.9678,-0.9655,-0.9625,-0.9619,-0.962,-0.9633,-0.9649,-0.9641,-0.9568,-0.9618,-0.9617,-0.9616,-0.9616,-0.9616,-1.0039,-1.0035,-1.0002,-0.9983,-0.9961,-0.994,-0.9931,-0.9902,-0.9884,-0.9855,-0.983,-0.9812,-0.9779,-0.9735,-0.9715,-0.9699,-0.9684,-0.9687,-0.9688,-0.9689,-0.9695,-0.9651,-0.9693,-0.9693,-0.9693,-0.9693,-0.9692,0,-1.0095,-1.0072,-1.0055,-1.0023,-1.0008,-0.9981,-0.9953,-0.9942,-0.9927,-0.9899,-0.988,-0.9856,-0.9834,-0.9795,-0.977,-0.9765,-0.975,-0.9759,-0.976,-0.9755,-0.9709,-0.971,-0.9772,-0.9772,-0.9772,-0.9772,-0.9772,-0.9772,-1.0123,-1.0115,-1.0093,-1.0074,-1.005,-1.0032,-1.0019,-0.9999,-0.9976,-0.9952,-0.9934,-0.9909,-0.9877,-0.9849,-0.9827,-0.9816,-0.9809,-0.9823,-0.9808,-0.9766,-0.9758,-0.9751,-0.9752,-0.9822,-0.9822,-0.9855,-0.9856,-0.9856]}]]